Lid_Strength_Index
2 2 2 2 2 2 2 2 2 2 2 1 1 1 2 3 4 4 8 6 1 -0 -1 1 2 2 2 4 4 4 11 13 12 11 10 6 8 5 4 7 6 5 5 4 2
2 3 3 2 2 2 2 2 2 2 2 2 1 1 1 2 5 7 2 -2 -0 -1 2 3 5 4 6 6 6 8 12 11 8 8 9 7 7 7 7 7 7 6 4 3 3
3 3 3 3 3 2 2 2 2 2 2 2 2 1 1 2 9 10 -2 -1 -0 -0 1 2 3 5 7 6 7 8 11 8 7 6 6 7 7 6 8 9 7 8 6 4 4
3 3 3 3 3 3 3 3 3 3 3 2 2 1 0 4 12 5 -1 -1 -1 0 2 3 4 7 8 9 7 10 7 7 6 6 6 7 6 7 7 7 5 5 4 4 4
3 3 3 3 3 3 3 3 3 3 3 3 2 1 3 9 9 1 -1 -0 0 2 3 4 6 7 9 8 7 9 7 6 6 6 6 6 7 7 7 5 4 4 4 5 4
3 3 3 3 3 3 3 3 3 3 3 3 2 1 5 11 3 0 0 1 2 2 3 4 5 5 7 7 8 7 7 7 6 6 6 7 7 6 6 5 5 5 5 4 4
3 3 3 3 3 3 3 4 4 4 3 3 2 1 5 9 1 0 0 1 2 2 4 3 4 7 6 7 5 7 8 8 7 6 7 6 9 8 6 5 6 6 5 5 4
3 3 4 4 4 4 4 4 4 4 3 3 2 4 9 5 1 1 4 4 2 2 4 4 4 6 7 6 6 8 8 12 8 7 6 7 12 8 6 6 7 6 5 5 4
4 4 4 4 4 4 5 5 3 3 2 2 5 7 9 3 4 4 2 6 6 3 5 2 5 7 7 9 10 10 13 12 10 7 8 8 11 8 6 6 7 6 6 5 5
4 4 4 4 5 5 5 4 2 2 2 1 2 9 9 7 5 4 4 6 7 7 7 8 8 10 10 10 15 13 13 11 12 9 9 10 10 8 7 7 7 6 6 5 5
4 4 4 4 5 5 7 7 9 10 5 8 8 10 8 6 5 6 4 5 9 9 11 9 10 11 10 9 9 10 11 12 10 9 10 10 10 9 7 7 7 7 6 6 5
4 4 4 4 5 5 8 9 9 8 12 9 6 6 6 6 7 6 6 7 9 12 10 12 12 9 8 8 9 10 12 12 10 8 10 11 11 9 8 8 7 7 7 6 5
4 4 4 5 5 7 8 9 7 9 11 9 8 7 6 5 7 7 6 8 9 11 11 13 11 8 8 10 10 12 12 12 12 10 9 11 12 11 8 7 6 6 5 5 5
4 4 5 5 8 9 7 6 6 8 13 11 10 8 6 6 8 4 7 8 10 10 9 11 10 9 10 11 10 13 9 10 11 12 15 11 17 12 10 10 8 7 6 6 5
4 5 5 6 10 9 8 7 7 7 16 9 10 7 8 8 9 7 7 8 10 9 9 10 10 10 11 10 8 10 8 10 11 13 14 13 15 13 11 12 9 8 6 5 5
5 5 6 8 10 8 7 7 8 12 16 10 10 11 10 10 9 8 8 8 8 10 11 10 10 10 11 10 8 8 10 10 12 14 17 14 14 14 12 10 9 7 6 6 5
6 6 7 7 11 8 8 9 14 16 10 11 13 12 12 12 11 9 10 12 11 14 13 12 12 12 12 14 10 10 13 18 19 19 18 16 15 13 9 8 8 8 6 5 5
7 7 8 7 9 8 10 12 17 13 12 11 11 12 13 12 12 11 11 12 12 13 14 14 14 11 11 12 14 12 12 17 21 21 18 15 17 12 8 7 7 6 6 5 5
8 10 10 8 8 9 12 16 16 14 11 11 12 13 13 11 11 12 12 12 11 12 13 16 14 11 10 13 10 12 13 11 16 19 17 16 13 9 9 8 7 7 6 6 5
11 11 9 7 8 12 14 16 15 12 11 11 14 12 15 13 12 13 13 12 11 11 13 13 15 12 10 10 13 11 10 15 17 18 19 16 15 13 10 9 8 7 7 6 5
11 10 8 8 9 11 15 16 13 11 10 11 12 13 13 13 13 13 13 10 8 9 12 15 14 14 13 13 14 14 15 16 15 16 18 18 15 10 9 9 8 7 6 6 5
11 11 8 9 12 15 15 14 11 10 11 11 11 11 13 13 13 13 12 10 7 9 13 14 15 15 13 12 12 14 14 15 16 17 19 18 15 9 8 8 7 7 6 5 5
11 11 8 10 14 15 14 12 12 11 12 11 11 10 10 12 14 11 10 7 7 9 11 12 16 17 14 13 13 14 14 16 17 17 18 17 14 11 11 10 8 7 7 6 5
12 13 11 12 14 14 14 14 12 9 10 10 10 10 10 12 11 12 11 8 8 8 5 7 17 16 15 14 13 14 13 15 15 17 17 16 13 12 11 10 8 7 7 6 6
12 14 13 15 14 14 14 13 12 12 10 10 10 10 11 14 13 13 11 11 9 7 9 11 13 15 13 12 13 12 12 14 14 14 14 13 14 11 10 10 9 6 7 6 6
12 13 13 14 14 14 13 14 12 11 11 11 11 10 10 13 14 13 13 14 12 11 11 12 13 14 13 11 13 13 11 13 13 14 14 15 14 11 10 9 9 8 6 6 6
10 11 11 14 14 15 15 13 11 10 10 9 10 11 11 10 10 10 11 11 12 13 13 13 14 14 15 12 12 14 11 12 11 13 12 13 12 11 11 10 9 7 6 6 6